Simultaneous Nadir Overpasses (SNOs) Predictions

Prediction of SNOs over PacNW region [( 10.00, 139.50) to ( 22.70, 165.60)] between AQUA and NPP Satellites:

Table of predicted SNOs over PacNW region for the next 30.0 days since TLE Epoch: 1/24/2020
Index Date (AQUA) Time (AQUA) AQUA Lat,Lon Date (NPP) Time (NPP) NPP Lat,Lon Distance(km) Time Diff (sec)
1 01/25/2020 15:09:50 22.63, 159.86 01/25/2020 15:10:25 23.21, 157.33 267.12 35
2 02/02/2020 15:59:19 22.59, 147.49 02/02/2020 16:01:13 23.23, 144.63 301.92 114
3 02/10/2020 15:09:53 22.62, 159.86 02/10/2020 15:10:32 23.17, 157.29 271.50 39
4 02/18/2020 15:59:20 22.61, 147.51 02/18/2020 16:01:18 23.27, 144.60 306.39 118




NCC Satellite Simultaneous Nadir Overpasses (SNOs) Prediction Service
